Rexburg, ID

5:45 AM MST on February 12, 2016 (GMT -0700)
Rexburg-Madison County

Weather History for KRXE - January, 2013

Change the Weather History Date:

Sunday, January 6, 2013

  Actual Average Record
Temperature  
Mean Temperature 14 °F 20 °F  
Max Temperature 27 °F 28 °F 39 °F (2015)
Min Temperature 0 °F 12 °F -7 °F (2014)
Degree Days  
Heating Degree Days 51 45  
Month to date heating degree days 359 270  
Since 1 July heating degree days 3232 3652  
Cooling Degree Days 0 0  
Month to date cooling degree days 0 0  
Year to date cooling degree days 0 0  
Moisture  
Dew Point 7 °F    
Average Humidity 74    
Maximum Humidity 91    
Minimum Humidity 57    
Precipitation  
Precipitation 0.00 in 0.03 in 0.21 in (1986)
Month to date precipitation T 0.19  
Year to date precipitation T 0.19  
Sea Level Pressure  
Sea Level Pressure 30.33 in    
Wind  
Wind Speed 2 mph (NNE)    
Max Wind Speed 8 mph    
Max Gust Speed 10 mph    
Visibility 10 miles    
Events      
T = Trace of Precipitation, MM = Missing Value Source: NWS Daily Summary

Daily Weather History Graph

Daily Weather History Graph

Search for Another Location

Airport or City:

Trip Planner

Search our weather history database for the weather conditions in past years. The results will help you decide how hot, cold, wet, or windy it might be!

Date:

Astronomy

Jan. 06, 2013 Rise Set
Actual Time 8:01 AM MST 5:05 PM MST
Civil Twilight 7:28 AM MST 5:38 PM MST
Nautical Twilight 6:52 AM MST 6:14 PM MST
Astronomical Twilight 6:17 AM MST 6:49 PM MST
Moon 2:15 AM MST (1/6) 12:39 PM MST (1/6)
Length of Visible Light 10h 09m
Length of Day
9h 04m
Waning Crescent, 32% of the Moon is Illuminated
Jan 6
Waning Crescent
Jan 11
New
Jan 18
First Quarter
Jan 26
Full
Feb 3
Last Quarter

Hourly Weather History & Observations

Time (MST) Temp. Windchill Dew Point Humidity Pressure Visibility Wind Dir Wind Speed Gust Speed Precip Events Conditions
12:53 AM -0.0 °F -7.9 °F -4.0 °F 83% 30.47 in 10.0 mi NE 3.5 mph - N/A   Clear
1:53 AM 3.0 °F - -2.0 °F 80% 30.46 in 10.0 mi Calm Calm - N/A   Clear
2:53 AM 1.9 °F -5.6 °F -2.0 °F 83% 30.44 in 10.0 mi ENE 3.5 mph - N/A   Clear
3:53 AM 5.0 °F -2.1 °F 1.0 °F 84% 30.40 in 10.0 mi ENE 3.5 mph - N/A   Clear
5:53 AM 3.9 °F - -0.0 °F 84% 30.42 in 10.0 mi Calm Calm - N/A   Clear
6:53 AM 5.0 °F - -0.0 °F 80% 30.42 in 10.0 mi Calm Calm - N/A   Clear
7:53 AM 7.0 °F -3.3 °F 1.9 °F 80% 30.39 in 10.0 mi NE 5.8 mph - N/A   Clear
8:53 AM 9.0 °F - 3.9 °F 80% 30.38 in 10.0 mi Calm Calm - N/A   Mostly Cloudy
9:53 AM 14.0 °F - 7.0 °F 74% 30.38 in 10.0 mi Calm Calm - N/A   Overcast
10:53 AM 18.0 °F 9.8 °F 10.0 °F 71% 30.32 in 10.0 mi NE 5.8 mph - N/A   Overcast
11:53 AM 21.9 °F 14.5 °F 14.0 °F 72% 30.29 in 10.0 mi North 5.8 mph - N/A   Overcast
12:53 PM 26.1 °F 21.9 °F 15.1 °F 63% 30.26 in 10.0 mi NE 3.5 mph - N/A   Partly Cloudy
1:53 PM 27.0 °F - 14.0 °F 58% 30.22 in 10.0 mi Calm Calm - N/A   Mostly Cloudy
2:53 PM 26.1 °F 21.9 °F 16.0 °F 66% 30.22 in 10.0 mi SSW 3.5 mph - N/A   Overcast
3:53 PM 25.0 °F 20.7 °F 17.1 °F 72% 30.22 in 10.0 mi South 3.5 mph - N/A   Overcast
4:53 PM 25.0 °F 19.3 °F 16.0 °F 69% 30.23 in 10.0 mi West 4.6 mph - N/A   Overcast
5:53 PM 24.1 °F 19.7 °F 16.0 °F 71% 30.26 in 10.0 mi West 3.5 mph - N/A   Overcast
6:53 PM 19.9 °F - 15.1 °F 81% 30.27 in 10.0 mi Calm Calm - N/A   Mostly Cloudy
7:53 PM 16.0 °F 8.8 °F 10.0 °F 77% 30.30 in 10.0 mi Variable 4.6 mph - N/A   Clear
8:53 PM 12.9 °F 6.9 °F 8.1 °F 81% 30.32 in 10.0 mi WNW 3.5 mph - N/A   Clear
9:53 PM 8.1 °F - 6.1 °F 92% 30.31 in 10.0 mi Calm Calm - N/A   Clear
10:53 PM 8.1 °F - 5.0 °F 87% 30.32 in 9.0 mi Calm Calm - N/A   Clear
11:53 PM 7.0 °F 0.1 °F 3.9 °F 87% 30.32 in 10.0 mi SE 3.5 mph - N/A   Clear